Year,Month,Day,Hour,Minute,Value (Times are PST for windgust in km/hr)
2010,10,23,00,01,1.60
2010,10,23,00,03,1.60
2010,10,23,00,05,1.60
2010,10,23,01,03,3.20
2010,10,23,01,04,4.80
2010,10,23,01,05,4.80
2010,10,23,01,06,3.20
2010,10,23,01,07,4.80
2010,10,23,01,08,6.40
2010,10,23,01,09,8.10
2010,10,23,01,10,4.80
2010,10,23,01,11,3.20
2010,10,23,01,12,6.40
2010,10,23,01,13,1.60
2010,10,23,01,14,8.10
2010,10,23,01,15,3.20
2010,10,23,01,16,3.20
2010,10,23,01,17,1.60
2010,10,23,01,18,6.40
2010,10,23,01,19,6.40
2010,10,23,01,20,6.40
2010,10,23,01,21,4.80
2010,10,23,01,22,4.80
2010,10,23,01,23,4.80
2010,10,23,01,24,3.20
2010,10,23,02,09,1.60
2010,10,23,02,13,1.60
2010,10,23,02,14,1.60
2010,10,23,02,43,1.60
2010,10,23,02,47,1.60
2010,10,23,02,50,1.60
2010,10,23,02,51,3.20
2010,10,23,02,52,1.60
2010,10,23,02,53,1.60
2010,10,23,02,54,1.60
2010,10,23,02,55,3.20
2010,10,23,02,56,3.20
2010,10,23,02,58,1.60
2010,10,23,02,59,1.60
2010,10,23,03,02,1.60
2010,10,23,03,03,1.60
2010,10,23,03,04,3.20
2010,10,23,03,07,3.20
2010,10,23,03,08,1.60
2010,10,23,03,09,1.60
2010,10,23,03,10,1.60
2010,10,23,03,15,3.20
2010,10,23,03,16,3.20
2010,10,23,03,19,1.60
2010,10,23,03,20,3.20
2010,10,23,03,21,3.20
2010,10,23,03,22,1.60
2010,10,23,03,29,1.60
2010,10,23,03,30,1.60
2010,10,23,03,31,1.60
2010,10,23,03,32,1.60
2010,10,23,03,33,3.20
2010,10,23,03,34,1.60
2010,10,23,03,36,1.60
2010,10,23,03,40,1.60
2010,10,23,03,41,3.20
2010,10,23,03,42,1.60
2010,10,23,03,43,1.60
2010,10,23,03,44,1.60
2010,10,23,03,45,3.20
2010,10,23,03,58,1.60
2010,10,23,04,00,1.60
2010,10,23,04,01,4.80
2010,10,23,04,02,3.20
2010,10,23,04,07,1.60
2010,10,23,04,19,1.60
2010,10,23,05,30,1.60
2010,10,23,05,31,1.60
2010,10,23,06,02,1.60
2010,10,23,06,13,3.20
2010,10,23,06,14,1.60
2010,10,23,06,16,1.60
2010,10,23,06,24,3.20
2010,10,23,06,47,3.20
2010,10,23,06,48,1.60
2010,10,23,06,49,1.60
2010,10,23,06,51,1.60
2010,10,23,06,54,1.60
2010,10,23,06,56,1.60
2010,10,23,06,57,4.80
2010,10,23,06,58,1.60
2010,10,23,07,01,1.60
2010,10,23,07,02,1.60
2010,10,23,07,07,1.60
2010,10,23,07,08,3.20
2010,10,23,07,09,1.60
2010,10,23,07,29,1.60
2010,10,23,07,30,3.20
2010,10,23,07,31,3.20
2010,10,23,07,32,1.60
2010,10,23,07,33,3.20
2010,10,23,07,34,3.20
2010,10,23,07,47,1.60
2010,10,23,08,23,1.60
2010,10,23,08,24,1.60
2010,10,23,08,25,3.20
2010,10,23,08,28,1.60
2010,10,23,08,29,3.20
2010,10,23,08,30,1.60
2010,10,23,08,34,1.60
2010,10,23,08,39,1.60
2010,10,23,08,49,3.20
2010,10,23,08,50,3.20
2010,10,23,09,01,1.60
2010,10,23,09,02,3.20
2010,10,23,09,03,1.60
2010,10,23,09,28,1.60
2010,10,23,09,40,1.60
2010,10,23,09,41,1.60
2010,10,23,09,47,1.60
2010,10,23,09,48,1.60
2010,10,23,09,50,1.60
2010,10,23,09,51,1.60
2010,10,23,09,58,1.60
2010,10,23,10,08,1.60
2010,10,23,10,09,1.60
2010,10,23,10,10,3.20
2010,10,23,10,11,1.60
2010,10,23,10,12,3.20
2010,10,23,10,13,1.60
2010,10,23,10,15,3.20
2010,10,23,10,16,1.60
2010,10,23,10,17,1.60
2010,10,23,10,18,3.20
2010,10,23,10,19,3.20
2010,10,23,10,21,4.80
2010,10,23,10,22,8.10
2010,10,23,10,23,11.30
2010,10,23,10,24,11.30
2010,10,23,10,25,9.60
2010,10,23,10,26,6.40
2010,10,23,10,27,6.40
2010,10,23,10,28,16.10
2010,10,23,10,29,9.60
2010,10,23,10,30,8.10
2010,10,23,10,31,3.20
2010,10,23,10,32,4.80
2010,10,23,10,33,4.80
2010,10,23,10,34,3.20
2010,10,23,10,35,6.40
2010,10,23,10,36,6.40
2010,10,23,10,37,1.60
2010,10,23,10,38,8.10
2010,10,23,10,39,9.60
2010,10,23,10,40,1.60
2010,10,23,10,41,3.20
2010,10,23,10,42,4.80
2010,10,23,10,43,3.20
2010,10,23,10,44,3.20
2010,10,23,10,45,8.10
2010,10,23,10,46,6.40
2010,10,23,10,47,1.60
2010,10,23,10,48,6.40
2010,10,23,10,49,3.20
2010,10,23,10,50,3.20
2010,10,23,10,51,1.60
2010,10,23,10,52,3.20
2010,10,23,10,53,3.20
2010,10,23,10,54,3.20
2010,10,23,10,55,1.60
2010,10,23,10,56,1.60
2010,10,23,10,57,6.40
2010,10,23,10,58,3.20
2010,10,23,10,59,1.60
2010,10,23,11,01,1.60
2010,10,23,11,02,1.60
2010,10,23,11,03,9.60
2010,10,23,11,04,6.40
2010,10,23,11,05,6.40
2010,10,23,11,06,1.60
2010,10,23,11,07,9.60
2010,10,23,11,08,11.30
2010,10,23,11,09,8.10
2010,10,23,11,10,1.60
2010,10,23,11,11,6.40
2010,10,23,11,12,4.80
2010,10,23,11,13,4.80
2010,10,23,11,14,6.40
2010,10,23,11,15,3.20
2010,10,23,11,16,4.80
2010,10,23,11,17,4.80
2010,10,23,11,18,1.60
2010,10,23,11,19,16.10
2010,10,23,11,20,11.30
2010,10,23,11,21,11.30
2010,10,23,11,22,11.30
2010,10,23,11,23,6.40
2010,10,23,11,24,12.90
2010,10,23,11,25,11.30
2010,10,23,11,26,8.10
2010,10,23,11,27,6.40
2010,10,23,11,28,4.80
2010,10,23,11,29,8.10
2010,10,23,11,30,11.30
2010,10,23,11,31,6.40
2010,10,23,11,32,4.80
2010,10,23,11,33,6.40
2010,10,23,11,34,3.20
2010,10,23,11,35,4.80
2010,10,23,11,36,4.80
2010,10,23,11,37,9.60
2010,10,23,11,38,9.60
2010,10,23,11,39,4.80
2010,10,23,11,40,6.40
2010,10,23,11,41,8.10
2010,10,23,11,42,6.40
2010,10,23,11,43,1.60
2010,10,23,11,44,9.60
2010,10,23,11,45,8.10
2010,10,23,11,46,8.10
2010,10,23,11,47,6.40
2010,10,23,11,48,1.60
2010,10,23,11,49,6.40
2010,10,23,11,50,9.60
2010,10,23,11,51,8.10
2010,10,23,11,52,1.60
2010,10,23,11,54,9.60
2010,10,23,11,55,8.10
2010,10,23,11,56,8.10
2010,10,23,11,57,6.40
2010,10,23,11,58,11.30
2010,10,23,11,59,8.10
2010,10,23,12,00,6.40
2010,10,23,12,01,4.80
2010,10,23,12,02,6.40
2010,10,23,12,03,4.80
2010,10,23,12,04,3.20
2010,10,23,12,05,1.60
2010,10,23,12,06,3.20
2010,10,23,12,07,6.40
2010,10,23,12,08,8.10
2010,10,23,12,09,20.90
2010,10,23,12,10,8.10
2010,10,23,12,11,6.40
2010,10,23,12,12,6.40
2010,10,23,12,13,9.60
2010,10,23,12,14,6.40
2010,10,23,12,15,3.20
2010,10,23,12,16,3.20
2010,10,23,12,17,9.60
2010,10,23,12,18,9.60
2010,10,23,12,19,22.50
2010,10,23,12,20,11.30
2010,10,23,12,21,9.60
2010,10,23,12,22,20.90
2010,10,23,12,23,11.30
2010,10,23,12,24,9.60
2010,10,23,12,25,11.30
2010,10,23,12,26,9.60
2010,10,23,12,27,6.40
2010,10,23,12,28,4.80
2010,10,23,12,29,22.50
2010,10,23,12,30,14.50
2010,10,23,12,31,11.30
2010,10,23,12,32,9.60
2010,10,23,12,33,17.70
2010,10,23,12,34,8.10
2010,10,23,12,35,14.50
2010,10,23,12,36,11.30
2010,10,23,12,37,14.50
2010,10,23,12,38,11.30
2010,10,23,12,39,16.10
2010,10,23,12,40,14.50
2010,10,23,12,41,8.10
2010,10,23,12,42,9.60
2010,10,23,12,43,9.60
2010,10,23,12,44,19.30
2010,10,23,12,45,16.10
2010,10,23,12,46,9.60
2010,10,23,12,47,11.30
2010,10,23,12,48,8.10
2010,10,23,12,49,8.10
2010,10,23,12,50,12.90
2010,10,23,12,51,8.10
2010,10,23,12,52,6.40
2010,10,23,12,53,11.30
2010,10,23,12,54,11.30
2010,10,23,12,55,16.10
2010,10,23,12,56,11.30
2010,10,23,12,57,6.40
2010,10,23,12,58,4.80
2010,10,23,12,59,6.40
2010,10,23,13,00,12.90
2010,10,23,13,01,9.60
2010,10,23,13,02,6.40
2010,10,23,13,03,20.90
2010,10,23,13,04,9.60
2010,10,23,13,05,20.90
2010,10,23,13,06,17.70
2010,10,23,13,07,20.90
2010,10,23,13,08,20.90
2010,10,23,13,09,19.30
2010,10,23,13,10,17.70
2010,10,23,13,11,8.10
2010,10,23,13,12,6.40
2010,10,23,13,13,8.10
2010,10,23,13,14,16.10
2010,10,23,13,15,16.10
2010,10,23,13,16,9.60
2010,10,23,13,17,4.80
2010,10,23,13,18,9.60
2010,10,23,13,19,20.90
2010,10,23,13,20,11.30
2010,10,23,13,21,9.60
2010,10,23,13,22,11.30
2010,10,23,13,23,11.30
2010,10,23,13,24,11.30
2010,10,23,13,25,6.40
2010,10,23,13,26,8.10
2010,10,23,13,27,1.60
2010,10,23,13,28,8.10
2010,10,23,13,29,8.10
2010,10,23,13,30,9.60
2010,10,23,13,31,4.80
2010,10,23,13,32,8.10
2010,10,23,13,33,8.10
2010,10,23,13,34,11.30
2010,10,23,13,35,6.40
2010,10,23,13,36,6.40
2010,10,23,13,37,3.20
2010,10,23,13,38,1.60
2010,10,23,13,39,14.50
2010,10,23,13,40,8.10
2010,10,23,13,41,8.10
2010,10,23,13,42,8.10
2010,10,23,13,43,3.20
2010,10,23,13,44,6.40
2010,10,23,13,45,6.40
2010,10,23,13,46,6.40
2010,10,23,13,47,9.60
2010,10,23,13,48,8.10
2010,10,23,13,49,14.50
2010,10,23,13,50,11.30
2010,10,23,13,51,6.40
2010,10,23,13,52,9.60
2010,10,23,13,53,11.30
2010,10,23,13,54,9.60
2010,10,23,13,55,6.40
2010,10,23,13,56,9.60
2010,10,23,13,57,3.20
2010,10,23,13,58,1.60
2010,10,23,13,59,1.60
2010,10,23,14,00,9.60
2010,10,23,14,01,1.60
2010,10,23,14,02,1.60
2010,10,23,14,03,4.80
2010,10,23,14,04,1.60
2010,10,23,14,05,1.60
2010,10,23,14,06,4.80
2010,10,23,14,07,4.80
2010,10,23,14,08,11.30
2010,10,23,14,09,6.40
2010,10,23,14,10,6.40
2010,10,23,14,11,6.40
2010,10,23,14,12,4.80
2010,10,23,14,13,6.40
2010,10,23,14,14,1.60
2010,10,23,14,15,3.20
2010,10,23,14,16,6.40
2010,10,23,14,17,3.20
2010,10,23,14,19,3.20
2010,10,23,14,20,3.20
2010,10,23,14,22,4.80
2010,10,23,14,23,1.60
2010,10,23,14,24,1.60
2010,10,23,14,26,1.60
2010,10,23,14,29,4.80
2010,10,23,14,30,4.80
2010,10,23,14,31,3.20
2010,10,23,14,32,9.60
2010,10,23,14,33,4.80
2010,10,23,14,34,6.40
2010,10,23,14,35,1.60
2010,10,23,14,36,3.20
2010,10,23,14,37,6.40
2010,10,23,14,38,9.60
2010,10,23,14,39,4.80
2010,10,23,14,40,6.40
2010,10,23,14,41,4.80
2010,10,23,14,42,6.40
2010,10,23,14,43,3.20
2010,10,23,14,44,9.60
2010,10,23,14,45,4.80
2010,10,23,14,46,8.10
2010,10,23,14,47,11.30
2010,10,23,14,48,11.30
2010,10,23,14,49,8.10
2010,10,23,14,50,4.80
2010,10,23,14,51,3.20
2010,10,23,14,52,4.80
2010,10,23,14,53,4.80
2010,10,23,14,54,4.80
2010,10,23,14,55,6.40
2010,10,23,14,56,9.60
2010,10,23,14,57,14.50
2010,10,23,14,58,12.90
2010,10,23,14,59,6.40
2010,10,23,15,00,11.30
2010,10,23,15,01,6.40
2010,10,23,15,02,9.60
2010,10,23,15,03,8.10
2010,10,23,15,04,1.60
2010,10,23,15,05,6.40
2010,10,23,15,06,3.20
2010,10,23,15,07,3.20
2010,10,23,15,08,11.30
2010,10,23,15,09,8.10
2010,10,23,15,10,3.20
2010,10,23,15,11,3.20
2010,10,23,15,12,4.80
2010,10,23,15,13,1.60
2010,10,23,15,14,9.60
2010,10,23,15,15,6.40
2010,10,23,15,16,19.30
2010,10,23,15,17,22.50
2010,10,23,15,18,17.70
2010,10,23,15,19,8.10
2010,10,23,15,20,8.10
2010,10,23,15,21,8.10
2010,10,23,15,22,3.20
2010,10,23,15,23,16.10
2010,10,23,15,24,4.80
2010,10,23,15,25,6.40
2010,10,23,15,26,1.60
2010,10,23,15,27,6.40
2010,10,23,15,28,9.60
2010,10,23,15,29,14.50
2010,10,23,15,30,17.70
2010,10,23,15,31,17.70
2010,10,23,15,32,9.60
2010,10,23,15,33,17.70
2010,10,23,15,34,9.60
2010,10,23,15,35,11.30
2010,10,23,15,36,11.30
2010,10,23,15,37,9.60
2010,10,23,15,38,6.40
2010,10,23,15,39,11.30
2010,10,23,15,40,4.80
2010,10,23,15,41,11.30
2010,10,23,15,42,9.60
2010,10,23,15,43,9.60
2010,10,23,15,44,4.80
2010,10,23,15,45,3.20
2010,10,23,15,46,3.20
2010,10,23,15,47,1.60
2010,10,23,15,50,9.60
2010,10,23,15,51,8.10
2010,10,23,15,52,4.80
2010,10,23,15,53,4.80
2010,10,23,15,54,11.30
2010,10,23,15,55,9.60
2010,10,23,15,56,9.60
2010,10,23,15,57,4.80
2010,10,23,15,58,3.20
2010,10,23,15,59,4.80
2010,10,23,16,00,3.20
2010,10,23,16,01,8.10
2010,10,23,16,02,1.60
2010,10,23,16,03,1.60
2010,10,23,16,04,1.60
2010,10,23,16,05,1.60
2010,10,23,16,06,1.60
2010,10,23,16,07,3.20
2010,10,23,16,09,1.60
2010,10,23,16,10,1.60
2010,10,23,16,11,3.20
2010,10,23,16,12,3.20
2010,10,23,16,13,3.20
2010,10,23,16,14,3.20
2010,10,23,16,15,4.80
2010,10,23,16,16,1.60
2010,10,23,16,19,6.40
2010,10,23,16,20,8.10
2010,10,23,16,21,4.80
2010,10,23,16,22,11.30
2010,10,23,16,23,6.40
2010,10,23,16,24,8.10
2010,10,23,16,25,16.10
2010,10,23,16,26,11.30
2010,10,23,16,27,9.60
2010,10,23,16,28,12.90
2010,10,23,16,29,12.90
2010,10,23,16,30,14.50
2010,10,23,16,31,17.70
2010,10,23,16,32,17.70
2010,10,23,16,33,12.90
2010,10,23,16,34,11.30
2010,10,23,16,35,11.30
2010,10,23,16,36,3.20
2010,10,23,16,37,14.50
2010,10,23,16,38,11.30
2010,10,23,16,39,12.90
2010,10,23,16,40,1.60
2010,10,23,16,41,6.40
2010,10,23,16,42,22.50
2010,10,23,16,43,16.10
2010,10,23,16,44,6.40
2010,10,23,16,45,16.10
2010,10,23,16,46,16.10
2010,10,23,16,47,12.90
2010,10,23,16,48,14.50
2010,10,23,16,49,11.30
2010,10,23,16,50,14.50
2010,10,23,16,51,16.10
2010,10,23,16,52,16.10
2010,10,23,16,53,16.10
2010,10,23,16,54,8.10
2010,10,23,16,55,19.30
2010,10,23,16,56,22.50
2010,10,23,16,57,11.30
2010,10,23,16,58,11.30
2010,10,23,16,59,8.10
2010,10,23,17,00,9.60
2010,10,23,17,01,3.20
2010,10,23,17,02,8.10
2010,10,23,17,03,27.40
2010,10,23,17,04,25.70
2010,10,23,17,05,37.00
2010,10,23,17,06,17.70
2010,10,23,17,07,8.10
2010,10,23,17,08,27.40
2010,10,23,17,09,20.90
2010,10,23,17,10,20.90
2010,10,23,17,11,24.20
2010,10,23,17,12,17.70
2010,10,23,17,13,19.30
2010,10,23,17,14,24.20
2010,10,23,17,15,24.20
2010,10,23,17,16,29.00
2010,10,23,17,17,27.40
2010,10,23,17,18,17.70
2010,10,23,17,19,17.70
2010,10,23,17,20,11.30
2010,10,23,17,21,16.10
2010,10,23,17,22,14.50
2010,10,23,17,23,19.30
2010,10,23,17,24,27.40
2010,10,23,17,25,20.90
2010,10,23,17,26,11.30
2010,10,23,17,27,20.90
2010,10,23,17,28,16.10
2010,10,23,17,29,11.30
2010,10,23,17,30,24.20
2010,10,23,17,31,25.70
2010,10,23,17,32,17.70
2010,10,23,17,33,27.40
2010,10,23,17,34,37.00
2010,10,23,17,35,30.60
2010,10,23,17,36,16.10
2010,10,23,17,37,25.70
2010,10,23,17,38,17.70
2010,10,23,17,39,22.50
2010,10,23,17,40,30.60
2010,10,23,17,41,17.70
2010,10,23,17,42,22.50
2010,10,23,17,43,14.50
2010,10,23,17,44,25.70
2010,10,23,17,45,19.30
2010,10,23,17,46,27.40
2010,10,23,17,47,27.40
2010,10,23,17,48,25.70
2010,10,23,17,49,22.50
2010,10,23,17,50,27.40
2010,10,23,17,51,22.50
2010,10,23,17,52,22.50
2010,10,23,17,53,17.70
2010,10,23,17,54,27.40
2010,10,23,17,55,17.70
2010,10,23,17,56,19.30
2010,10,23,17,57,22.50
2010,10,23,17,58,16.10
2010,10,23,17,59,11.30
2010,10,23,18,00,19.30
2010,10,23,18,01,20.90
2010,10,23,18,02,11.30
2010,10,23,18,03,25.70
2010,10,23,18,04,17.70
2010,10,23,18,05,19.30
2010,10,23,18,06,25.70
2010,10,23,18,07,12.90
2010,10,23,18,08,11.30
2010,10,23,18,09,16.10
2010,10,23,18,10,11.30
2010,10,23,18,11,29.00
2010,10,23,18,12,25.70
2010,10,23,18,13,17.70
2010,10,23,18,14,22.50
2010,10,23,18,15,32.20
2010,10,23,18,16,30.60
2010,10,23,18,17,19.30
2010,10,23,18,18,27.40
2010,10,23,18,19,19.30
2010,10,23,18,20,22.50
2010,10,23,18,21,20.90
2010,10,23,18,22,20.90
2010,10,23,18,23,20.90
2010,10,23,18,24,24.20
2010,10,23,18,25,20.90
2010,10,23,18,26,22.50
2010,10,23,18,27,17.70
2010,10,23,18,28,30.60
2010,10,23,18,29,33.80
2010,10,23,18,30,32.20
2010,10,23,18,31,11.30
2010,10,23,18,32,11.30
2010,10,23,18,33,19.30
2010,10,23,18,34,27.40
2010,10,23,18,35,22.50
2010,10,23,18,36,24.20
2010,10,23,18,37,29.00
2010,10,23,18,38,30.60
2010,10,23,18,39,20.90
2010,10,23,18,40,14.50
2010,10,23,18,41,22.50
2010,10,23,18,42,16.10
2010,10,23,18,43,20.90
2010,10,23,18,44,27.40
2010,10,23,18,45,29.00
2010,10,23,18,46,14.50
2010,10,23,18,47,24.20
2010,10,23,18,48,19.30
2010,10,23,18,49,20.90
2010,10,23,18,50,20.90
2010,10,23,18,51,22.50
2010,10,23,18,52,19.30
2010,10,23,18,53,24.20
2010,10,23,18,54,27.40
2010,10,23,18,55,22.50
2010,10,23,18,56,27.40
2010,10,23,18,57,20.90
2010,10,23,18,58,17.70
2010,10,23,18,59,16.10
2010,10,23,19,00,27.40
2010,10,23,19,01,25.70
2010,10,23,19,02,20.90
2010,10,23,19,03,11.30
2010,10,23,19,04,24.20
2010,10,23,19,05,27.40
2010,10,23,19,06,17.70
2010,10,23,19,07,11.30
2010,10,23,19,08,24.20
2010,10,23,19,09,20.90
2010,10,23,19,10,19.30
2010,10,23,19,11,16.10
2010,10,23,19,12,22.50
2010,10,23,19,13,25.70
2010,10,23,19,14,32.20
2010,10,23,19,15,30.60
2010,10,23,19,16,22.50
2010,10,23,19,17,19.30
2010,10,23,19,18,24.20
2010,10,23,19,19,25.70
2010,10,23,19,20,20.90
2010,10,23,19,21,20.90
2010,10,23,19,22,20.90
2010,10,23,19,23,19.30
2010,10,23,19,24,16.10
2010,10,23,19,25,17.70
2010,10,23,19,26,22.50
2010,10,23,19,27,24.20
2010,10,23,19,28,29.00
2010,10,23,19,29,27.40
2010,10,23,19,30,25.70
2010,10,23,19,31,20.90
2010,10,23,19,32,27.40
2010,10,23,19,33,17.70
2010,10,23,19,34,14.50
2010,10,23,19,35,30.60
2010,10,23,19,36,32.20
2010,10,23,19,37,17.70
2010,10,23,19,38,8.10
2010,10,23,19,39,22.50
2010,10,23,19,40,25.70
2010,10,23,19,41,27.40
2010,10,23,19,42,25.70
2010,10,23,19,43,20.90
2010,10,23,19,44,19.30
2010,10,23,19,45,11.30
2010,10,23,19,46,24.20
2010,10,23,19,47,22.50
2010,10,23,19,48,17.70
2010,10,23,19,49,25.70
2010,10,23,19,50,30.60
2010,10,23,19,51,33.80
2010,10,23,19,52,40.20
2010,10,23,19,53,19.30
2010,10,23,19,54,16.10
2010,10,23,19,55,19.30
2010,10,23,19,56,17.70
2010,10,23,19,57,22.50
2010,10,23,19,58,20.90
2010,10,23,19,59,29.00
2010,10,23,20,00,27.40
2010,10,23,20,01,22.50
2010,10,23,20,02,22.50
2010,10,23,20,03,19.30
2010,10,23,20,04,19.30
2010,10,23,20,05,20.90
2010,10,23,20,06,17.70
2010,10,23,20,07,27.40
2010,10,23,20,08,27.40
2010,10,23,20,09,30.60
2010,10,23,20,10,20.90
2010,10,23,20,11,22.50
2010,10,23,20,12,14.50
2010,10,23,20,13,25.70
2010,10,23,20,14,27.40
2010,10,23,20,15,20.90
2010,10,23,20,16,24.20
2010,10,23,20,17,27.40
2010,10,23,20,18,20.90
2010,10,23,20,19,19.30
2010,10,23,20,20,27.40
2010,10,23,20,21,27.40
2010,10,23,20,22,35.40
2010,10,23,20,23,20.90
2010,10,23,20,24,22.50
2010,10,23,20,25,11.30
2010,10,23,20,26,25.70
2010,10,23,20,27,22.50
2010,10,23,20,28,24.20
2010,10,23,20,29,24.20
2010,10,23,20,30,25.70
2010,10,23,20,31,19.30
2010,10,23,20,32,19.30
2010,10,23,20,33,17.70
2010,10,23,20,34,16.10
2010,10,23,20,35,20.90
2010,10,23,20,36,16.10
2010,10,23,20,37,20.90
2010,10,23,20,38,17.70
2010,10,23,20,39,9.60
2010,10,23,20,40,19.30
2010,10,23,20,41,17.70
2010,10,23,20,42,9.60
2010,10,23,20,43,19.30
2010,10,23,20,44,22.50
2010,10,23,20,45,24.20
2010,10,23,20,46,25.70
2010,10,23,20,47,27.40
2010,10,23,20,48,24.20
2010,10,23,20,49,29.00
2010,10,23,20,50,29.00
2010,10,23,20,51,22.50
2010,10,23,20,52,25.70
2010,10,23,20,53,27.40
2010,10,23,20,54,24.20
2010,10,23,20,55,29.00
2010,10,23,20,56,27.40
2010,10,23,20,57,27.40
2010,10,23,20,58,24.20
2010,10,23,20,59,24.20
2010,10,23,21,00,30.60
2010,10,23,21,01,25.70
2010,10,23,21,02,27.40
2010,10,23,21,03,24.20
2010,10,23,21,04,22.50
2010,10,23,21,05,22.50
2010,10,23,21,06,19.30
2010,10,23,21,07,20.90
2010,10,23,21,08,24.20
2010,10,23,21,09,16.10
2010,10,23,21,10,19.30
2010,10,23,21,11,16.10
2010,10,23,21,12,33.80
2010,10,23,21,13,25.70
2010,10,23,21,14,20.90
2010,10,23,21,15,16.10
2010,10,23,21,16,30.60
2010,10,23,21,17,33.80
2010,10,23,21,18,29.00
2010,10,23,21,19,29.00
2010,10,23,21,20,16.10
2010,10,23,21,21,19.30
2010,10,23,21,22,30.60
2010,10,23,21,23,22.50
2010,10,23,21,24,20.90
2010,10,23,21,25,20.90
2010,10,23,21,26,24.20
2010,10,23,21,27,14.50
2010,10,23,21,28,38.60
2010,10,23,21,29,27.40
2010,10,23,21,30,17.70
2010,10,23,21,31,22.50
2010,10,23,21,32,25.70
2010,10,23,21,33,20.90
2010,10,23,21,34,24.20
2010,10,23,21,35,19.30
2010,10,23,21,36,14.50
2010,10,23,21,37,22.50
2010,10,23,21,38,19.30
2010,10,23,21,39,19.30
2010,10,23,21,40,22.50
2010,10,23,21,41,14.50
2010,10,23,21,42,16.10
2010,10,23,21,43,11.30
2010,10,23,21,44,22.50
2010,10,23,21,45,16.10
2010,10,23,21,46,27.40
2010,10,23,21,47,25.70
2010,10,23,21,48,24.20
2010,10,23,21,49,14.50
2010,10,23,21,50,19.30
2010,10,23,21,51,11.30
2010,10,23,21,52,29.00
2010,10,23,21,53,19.30
2010,10,23,21,54,20.90
2010,10,23,21,55,20.90
2010,10,23,21,56,32.20
2010,10,23,21,57,41.80
2010,10,23,21,58,27.40
2010,10,23,21,59,29.00
2010,10,23,22,00,30.60
2010,10,23,22,01,19.30
2010,10,23,22,02,32.20
2010,10,23,22,03,27.40
2010,10,23,22,04,17.70
2010,10,23,22,05,25.70
2010,10,23,22,06,35.40
2010,10,23,22,07,27.40
2010,10,23,22,08,35.40
2010,10,23,22,09,30.60
2010,10,23,22,10,25.70
2010,10,23,22,11,24.20
2010,10,23,22,12,45.10
2010,10,23,22,13,22.50
2010,10,23,22,14,25.70
2010,10,23,22,15,24.20
2010,10,23,22,16,27.40
2010,10,23,22,17,20.90
2010,10,23,22,18,20.90
2010,10,23,22,19,30.60
2010,10,23,22,20,27.40
2010,10,23,22,21,25.70
2010,10,23,22,22,35.40
2010,10,23,22,23,29.00
2010,10,23,22,24,30.60
2010,10,23,22,25,25.70
2010,10,23,22,26,30.60
2010,10,23,22,27,35.40
2010,10,23,22,28,33.80
2010,10,23,22,29,32.20
2010,10,23,22,30,30.60
2010,10,23,22,31,33.80
2010,10,23,22,32,30.60
2010,10,23,22,33,29.00
2010,10,23,22,34,29.00
2010,10,23,22,35,19.30
2010,10,23,22,36,32.20
2010,10,23,22,37,16.10
2010,10,23,22,38,27.40
2010,10,23,22,39,32.20
2010,10,23,22,40,27.40
2010,10,23,22,41,33.80
2010,10,23,22,42,25.70
2010,10,23,22,43,32.20
2010,10,23,22,44,27.40
2010,10,23,22,45,30.60
2010,10,23,22,46,27.40
2010,10,23,22,47,35.40
2010,10,23,22,48,30.60
2010,10,23,22,49,40.20
2010,10,23,22,50,24.20
2010,10,23,22,51,27.40
2010,10,23,22,52,35.40
2010,10,23,22,53,25.70
2010,10,23,22,54,19.30
2010,10,23,22,55,25.70
2010,10,23,22,56,29.00
2010,10,23,22,57,17.70
2010,10,23,22,58,22.50
2010,10,23,22,59,25.70
2010,10,23,23,00,25.70
2010,10,23,23,01,27.40
2010,10,23,23,02,24.20
2010,10,23,23,03,27.40
2010,10,23,23,04,27.40
2010,10,23,23,05,27.40
2010,10,23,23,06,30.60
2010,10,23,23,07,27.40
2010,10,23,23,08,29.00
2010,10,23,23,09,27.40
2010,10,23,23,10,19.30
2010,10,23,23,11,27.40
2010,10,23,23,12,19.30
2010,10,23,23,13,32.20
2010,10,23,23,14,24.20
2010,10,23,23,15,20.90
2010,10,23,23,16,14.50
2010,10,23,23,17,16.10
2010,10,23,23,18,33.80
2010,10,23,23,19,24.20
2010,10,23,23,20,16.10
2010,10,23,23,21,22.50
2010,10,23,23,22,19.30
2010,10,23,23,23,24.20
2010,10,23,23,24,19.30
2010,10,23,23,25,24.20
2010,10,23,23,26,37.00
2010,10,23,23,27,25.70
2010,10,23,23,28,19.30
2010,10,23,23,29,22.50
2010,10,23,23,30,11.30
2010,10,23,23,31,19.30
2010,10,23,23,32,20.90
2010,10,23,23,33,22.50
2010,10,23,23,34,19.30
2010,10,23,23,35,17.70
2010,10,23,23,36,25.70
2010,10,23,23,37,43.50
2010,10,23,23,38,27.40
2010,10,23,23,39,32.20
2010,10,23,23,40,17.70
2010,10,23,23,41,25.70
2010,10,23,23,42,32.20
2010,10,23,23,43,29.00
2010,10,23,23,44,29.00
2010,10,23,23,45,29.00
2010,10,23,23,46,35.40
2010,10,23,23,47,27.40
2010,10,23,23,48,37.00
2010,10,23,23,49,25.70
2010,10,23,23,50,35.40
2010,10,23,23,51,30.60
2010,10,23,23,52,17.70
2010,10,23,23,53,29.00
2010,10,23,23,54,20.90
2010,10,23,23,55,17.70
2010,10,23,23,56,20.90
2010,10,23,23,57,22.50
2010,10,23,23,58,22.50
2010,10,23,23,59,20.90
